Location: Tierra del Sol
(32.6128°N, 116.3319°W)
Time: 22:12:52
(UTC-07:00)

OTV 5 (USA 277) - Pass Details

Date: 12 October 2017
Orbit: 404 x 417 km, 43.0° (Epoch: 07 September)

Event Time Altitude Azimuth Distance (km) Brightness Sun altitude
Rises 19:44:24 0° 284° (WNW) 2,351 ? -19.5°
Reaches altitude 10° 19:47:02 10° 305° (NW) 1,489 ? -20.1°
Maximum altitude 19:49:20 17° 348° (NNW) 1,139 ? -20.5°
Enters shadow 19:49:55 16° 2° (N) 1,165 ? -20.7°
